Location: Gleizolles
(44.4833°N, 6.7667°E)
Time: 04:58:48
(UTC+00:00)

Transit 4A - Pass Details

Date: 25 June 2024
Orbit: 870 x 973 km, 66.8° (Epoch: 14 July)

Event Time Altitude Azimuth Distance (km) Brightness Sun altitude
Rises 00:16:36 0° 288° (WNW) 3,459 11.0 -21.5°
Reaches altitude 10° 00:21:40 10° 326° (NW) 2,527 10.8 -21.3°
Maximum altitude 00:22:54 11° 338° (NNW) 2,484 10.9 -21.3°
Drops below altitude 10° 00:24:09 10° 351° (N) 2,533 11.2 -21.2°
Sets 00:29:16 0° 29° (NNE) 3,492 12.3 -21.0°
